Theta_e
311 311 311 311 311 310 310 310 306 303 302 302 302 302 302 302 302 304 307 306 306 308 307 307 307 307 309 309 309 308 306 311 318 321 323 323 322 322 320 319 316 319 324 330 337 339 340 339 344 350 348 349 346 345 348 347 349 349 354 351 345 352 350 345 352 347 345 347 346 348 348 351 349 350 347 347 349 348 349 349 348 348 350 349 348 349 350 350
310 310 311 310 310 310 309 305 302 302 302 301 302 302 302 302 303 305 306 305 306 306 306 306 306 306 308 309 309 308 308 316 322 321 321 318 320 321 319 319 315 317 323 331 339 340 338 339 344 348 346 346 345 343 348 348 348 350 352 348 345 356 354 349 351 343 344 346 345 347 347 349 350 349 348 348 350 349 350 350 349 350 351 351 348 350 351 350
310 310 310 310 310 309 305 302 302 303 302 302 302 301 302 302 304 305 303 304 306 305 305 306 305 307 308 310 309 309 314 321 323 321 322 321 321 319 317 317 315 316 323 334 340 339 339 340 344 346 344 346 345 343 348 348 348 349 350 348 348 355 355 350 347 344 345 343 346 347 344 348 350 347 347 349 351 350 351 350 350 352 351 349 347 349 351 351
310 309 310 310 308 305 303 302 302 302 302 302 301 302 304 305 304 304 303 304 305 305 305 305 306 307 307 310 308 311 319 324 322 324 324 324 324 322 319 317 315 315 324 336 340 339 337 339 343 344 344 345 344 344 348 349 347 348 347 347 352 356 352 348 345 345 344 343 344 343 343 347 346 347 348 348 351 351 351 350 350 351 350 348 346 348 352 351
309 309 309 308 305 303 302 302 302 302 301 302 302 303 305 305 304 304 304 305 305 305 305 306 307 307 308 309 307 313 321 320 322 330 322 320 320 321 322 317 314 319 329 337 338 337 336 338 340 340 341 342 344 346 347 348 347 346 348 343 349 351 347 348 345 344 345 342 343 342 344 344 344 347 347 348 351 349 348 350 349 350 349 348 347 349 351 349
309 309 308 305 303 302 301 301 301 301 301 302 302 303 303 303 303 304 304 305 306 306 306 309 310 309 308 308 309 317 322 318 326 330 322 319 318 318 321 316 315 324 333 337 338 336 336 337 339 340 340 341 342 347 347 346 347 346 346 345 345 345 347 349 345 345 345 342 345 344 343 344 344 344 345 347 348 346 345 347 349 348 348 349 350 348 350 348
309 308 307 304 302 301 301 301 301 301 301 301 302 302 302 303 303 304 305 306 307 307 310 313 313 311 308 309 314 321 321 318 324 326 323 322 319 316 316 316 318 329 335 336 336 332 335 338 341 340 338 340 341 344 346 345 346 346 345 344 343 343 345 348 348 347 344 343 346 343 342 342 343 344 343 345 346 345 344 346 348 348 348 349 349 348 348 348
308 307 305 303 302 301 301 302 301 301 301 301 301 301 302 303 303 304 306 307 309 311 314 315 315 312 309 314 321 323 322 320 321 326 324 320 320 315 317 324 327 335 336 333 334 330 333 338 342 340 338 340 339 341 344 342 344 346 345 341 341 343 344 347 347 346 345 346 344 342 342 339 341 344 342 344 344 345 345 344 348 348 349 348 348 349 349 348
308 307 304 303 302 301 301 301 301 301 301 301 302 301 302 303 303 305 307 310 313 315 314 316 316 313 310 318 324 321 324 322 320 328 325 320 324 320 324 333 332 336 337 332 332 330 331 336 340 340 337 340 339 340 341 341 342 345 344 341 340 341 342 345 346 345 345 344 342 341 342 340 341 342 342 344 342 343 345 345 348 350 349 349 349 349 350 348
308 306 304 303 302 301 301 301 301 301 301 302 302 302 303 303 304 306 310 314 315 315 314 316 317 313 312 320 320 321 324 320 320 325 323 320 326 326 328 333 332 336 337 331 328 329 330 334 338 338 336 339 338 339 340 341 341 341 342 340 340 340 342 344 344 344 341 340 341 340 339 339 339 340 342 343 342 345 345 347 350 350 350 350 350 349 350 349
307 305 304 303 302 301 301 301 301 301 301 302 302 302 303 303 304 308 314 316 316 315 314 317 316 314 318 321 318 324 320 319 323 324 324 322 323 327 328 329 331 335 334 330 327 327 328 331 335 336 336 337 337 338 339 341 341 339 338 339 339 339 340 342 341 341 340 339 338 338 339 338 338 340 341 342 344 345 346 349 350 351 350 350 350 350 351 350
306 304 303 303 302 301 301 301 301 301 301 302 302 302 303 304 305 311 317 317 317 316 315 317 315 315 321 320 318 324 320 322 325 325 328 324 322 328 328 326 330 332 332 329 326 326 329 330 332 333 334 335 336 338 337 338 340 339 337 337 337 337 338 338 340 340 338 338 337 339 335 334 338 338 339 342 343 345 347 350 351 351 351 350 350 350 352 352
304 303 303 302 302 301 301 301 300 301 302 302 302 303 303 304 306 313 318 317 317 316 316 317 316 318 323 321 321 322 321 324 323 326 329 327 326 330 328 325 327 330 331 329 327 327 327 328 329 330 333 334 334 334 334 334 337 337 336 336 334 333 333 337 338 337 338 338 338 336 325 327 338 337 338 341 344 348 348 351 352 351 351 350 350 350 352 352
304 304 303 302 302 301 301 301 301 302 302 303 303 303 304 304 307 315 318 318 317 316 316 316 317 322 323 323 324 321 319 320 321 325 329 331 332 332 330 328 330 330 329 330 329 329 327 329 327 328 332 333 331 330 331 331 331 336 334 332 332 324 325 337 337 337 339 335 337 336 320 326 336 336 337 340 344 347 348 351 351 352 352 350 351 352 351 352
303 304 303 302 301 301 301 301 301 302 303 303 304 304 305 305 309 316 318 318 318 316 316 317 320 325 323 324 325 321 320 318 320 323 327 330 330 331 332 332 333 331 330 330 329 330 329 328 327 327 330 332 332 330 332 331 331 334 326 322 327 322 325 339 337 336 339 336 338 335 322 328 337 339 338 342 343 345 347 351 350 351 351 350 351 352 351 352
304 304 303 302 301 301 301 300 301 302 304 305 306 307 307 307 311 317 318 318 317 317 319 322 324 323 324 326 323 322 320 318 321 322 324 324 323 327 330 331 332 331 330 330 330 332 330 329 329 328 331 333 331 328 330 327 325 332 326 316 320 321 323 332 335 337 338 336 338 334 327 331 336 340 340 342 344 345 348 350 349 352 352 352 351 352 353 352
304 303 303 303 302 301 301 301 301 302 304 306 308 310 309 309 314 318 319 319 319 320 323 327 326 323 323 324 322 321 321 319 319 320 322 322 321 323 327 330 330 330 331 330 331 332 330 331 330 331 333 332 329 328 324 317 315 322 325 320 321 325 322 325 332 337 336 336 336 336 333 334 336 341 344 344 344 344 349 349 349 350 351 353 352 352 353 353
303 303 304 303 302 301 301 301 302 303 305 308 310 311 312 311 314 319 321 322 323 324 324 326 323 321 323 323 322 322 322 322 320 318 320 323 322 321 326 331 329 330 331 329 330 331 330 331 330 332 331 329 328 327 318 316 317 317 319 319 319 324 325 324 330 335 337 337 336 335 335 336 337 342 344 343 343 344 347 349 348 348 351 353 353 353 354 353
303 304 303 303 302 301 301 301 302 304 307 310 311 312 315 314 316 322 325 326 327 328 329 327 322 322 323 325 324 322 322 322 321 319 318 321 322 321 323 328 328 330 329 327 327 328 329 330 328 327 325 326 328 328 324 323 326 324 323 323 319 320 323 329 333 335 336 335 336 335 333 335 336 339 342 341 340 344 345 348 349 350 353 353 351 352 354 353
304 303 303 303 302 301 301 301 303 306 308 310 312 313 315 314 316 323 321 318 321 324 325 322 320 321 323 325 323 322 321 322 322 321 320 319 320 320 321 325 327 328 328 326 324 326 328 326 324 324 325 327 328 330 330 328 328 329 328 326 324 320 322 331 336 334 336 333 332 336 335 336 337 336 341 342 342 344 344 345 350 352 352 352 352 352 353 353
303 303 303 303 302 301 301 301 304 307 309 311 313 312 312 310 310 314 312 311 313 315 314 314 316 318 320 323 324 323 322 322 322 322 322 319 319 319 319 323 326 325 326 325 323 325 326 322 322 325 327 328 328 329 331 328 328 329 327 323 321 321 323 333 336 334 335 331 329 336 334 335 336 335 336 341 343 345 343 343 349 352 352 353 355 352 351 354
303 303 303 303 303 301 300 302 305 307 309 312 312 310 310 310 310 311 310 310 312 313 313 313 313 314 316 318 322 323 321 322 321 321 323 320 319 318 318 322 325 325 325 324 325 325 325 324 324 326 327 327 329 329 328 329 328 327 325 322 318 322 326 330 335 336 334 330 330 334 333 332 336 335 335 337 339 344 344 342 346 350 353 354 353 353 352 352
303 303 303 303 302 301 301 303 307 309 311 313 312 309 310 310 310 311 311 311 312 314 313 314 314 313 315 315 318 320 321 322 322 322 324 321 319 318 320 321 323 326 323 323 325 322 319 325 328 327 328 328 328 329 329 327 326 326 324 319 315 323 322 320 328 334 335 332 332 334 332 333 336 335 335 335 335 341 343 343 345 346 350 353 352 352 352 352
303 303 302 302 302 301 300 304 309 309 310 313 311 309 309 309 310 311 311 312 313 314 315 316 316 314 315 316 316 318 320 322 322 322 324 322 320 318 319 323 323 326 325 324 325 323 322 326 328 328 328 330 328 326 327 324 321 325 326 320 317 323 324 320 328 333 333 331 334 333 324 325 335 335 335 335 336 338 342 344 345 347 350 352 352 351 351 352
302 302 302 302 302 301 301 306 310 308 310 314 309 308 308 309 311 311 312 315 315 317 319 317 317 316 317 317 317 317 318 321 322 323 324 323 321 319 320 322 324 325 326 325 324 324 326 327 328 326 326 328 326 325 326 324 318 318 324 325 323 326 326 327 329 328 321 320 330 331 316 317 330 334 335 336 336 337 341 343 346 349 352 353 354 354 352 353
301 302 302 302 302 301 303 308 310 308 311 311 307 308 308 309 312 311 313 317 316 318 320 319 318 318 319 318 317 317 316 318 322 323 325 324 322 320 321 321 324 324 326 326 325 324 325 327 327 326 326 326 327 323 326 326 317 313 321 325 326 327 325 325 326 320 312 314 329 333 318 314 322 329 336 336 336 337 340 344 344 346 352 352 353 353 351 351
301 302 301 302 302 302 305 309 308 309 311 308 307 308 307 310 312 311 316 317 315 319 322 317 318 318 318 319 317 316 316 318 320 322 324 324 323 322 320 322 324 323 326 325 321 322 326 326 327 327 326 326 324 322 326 327 319 314 323 327 325 326 323 324 323 318 316 319 326 330 323 315 314 324 336 336 336 337 338 344 346 343 349 351 353 352 351 352
302 301 302 302 301 302 307 309 310 312 311 308 308 307 307 310 311 314 320 318 315 319 322 317 317 318 317 319 318 316 317 320 321 321 323 324 324 323 320 321 323 323 326 323 316 322 328 326 326 328 326 324 323 323 326 326 322 321 325 325 324 325 323 324 321 317 319 318 314 319 322 316 312 322 336 338 334 336 340 346 348 344 347 351 351 353 352 354
302 301 302 301 301 305 309 310 312 312 309 308 307 307 308 309 312 317 319 320 318 318 319 317 316 317 318 318 318 318 318 321 322 320 323 323 323 324 321 322 324 323 324 323 320 324 327 325 327 328 326 325 325 326 327 326 325 325 325 324 324 326 324 324 321 316 316 315 310 314 317 314 312 317 328 332 330 332 341 348 348 346 345 347 350 353 353 353
302 302 302 302 304 308 310 310 311 309 307 307 308 308 309 311 316 319 317 319 319 316 317 316 317 318 319 319 319 319 319 320 323 321 322 323 322 323 323 323 324 324 325 324 324 326 327 328 328 326 327 327 327 327 326 326 326 325 324 324 322 324 326 324 322 316 312 311 311 313 315 314 312 315 323 329 329 334 340 346 349 348 346 348 350 348 350 352
302 303 303 303 305 308 309 310 309 307 307 308 308 309 310 313 317 317 316 317 314 317 318 318 318 318 319 320 320 320 320 320 321 321 322 323 322 322 323 323 323 324 323 321 323 325 326 327 326 326 326 327 328 327 326 327 325 324 325 322 318 318 320 317 315 315 311 310 312 314 316 313 310 314 325 332 335 336 338 342 346 347 346 348 348 347 348 351
302 303 304 303 306 308 310 309 308 307 308 308 309 309 311 314 315 314 314 312 311 317 319 318 318 318 319 319 320 320 321 320 321 321 322 322 323 324 323 323 323 319 315 316 318 321 323 326 327 327 326 328 328 325 325 325 325 325 323 317 313 311 312 312 311 311 310 310 312 315 315 312 310 318 328 334 335 336 336 337 343 344 346 347 347 348 347 348
302 305 306 307 307 309 310 308 307 308 308 308 309 310 310 312 314 313 312 312 313 316 318 317 316 316 317 317 319 321 320 321 321 321 322 323 324 324 323 324 324 321 316 316 315 313 316 324 326 326 327 328 328 322 317 320 322 323 318 313 311 311 312 312 311 311 311 309 312 316 315 310 311 320 331 333 332 335 335 336 338 339 346 348 347 346 347 348
303 307 309 310 309 308 308 307 307 307 308 309 310 309 309 311 312 310 310 314 315 315 315 315 314 314 316 317 318 321 320 321 321 321 322 323 323 322 323 324 324 324 322 318 315 313 311 315 321 325 325 326 328 325 320 323 323 323 324 320 313 311 312 312 310 310 310 309 311 314 314 309 309 319 330 331 330 333 333 335 338 337 345 350 350 346 346 347
306 310 310 310 309 307 306 306 307 308 309 310 309 308 308 309 309 309 311 313 313 313 313 313 314 313 315 317 319 320 320 319 321 322 321 322 321 322 324 323 323 325 323 317 316 316 310 312 322 326 325 326 327 325 326 326 321 323 326 321 314 315 315 312 310 311 310 310 310 310 311 314 318 326 331 331 330 331 332 333 337 337 340 349 350 348 346 344
309 311 310 309 307 306 306 306 307 308 309 309 308 308 307 307 308 310 312 312 311 311 311 311 313 312 312 315 318 320 319 319 321 321 320 321 322 323 325 325 323 325 323 319 319 318 311 313 326 327 324 327 326 325 327 324 320 322 320 315 318 324 321 312 310 313 311 310 311 310 311 315 320 324 329 332 331 331 332 332 334 336 338 345 349 347 343 344
311 312 311 310 307 305 306 307 307 308 309 309 308 309 308 307 308 310 310 310 309 310 310 310 312 311 311 314 317 320 320 319 321 317 317 320 320 322 325 325 324 323 325 323 321 323 317 314 325 327 322 325 326 326 326 324 325 321 315 317 324 325 323 316 311 312 312 311 312 310 310 312 312 316 326 332 331 330 332 331 334 337 338 340 345 344 342 344
311 312 311 310 307 306 306 307 308 309 309 310 309 310 308 308 309 309 309 309 308 309 309 308 309 309 311 313 316 320 319 317 319 317 316 317 318 322 325 325 325 325 326 324 321 326 323 314 321 328 324 325 328 325 322 324 326 324 320 324 322 315 313 314 312 312 312 312 312 310 310 311 310 314 323 329 330 331 331 331 332 335 336 338 338 341 344 344
311 311 310 308 307 306 306 307 309 309 309 309 309 309 308 308 309 309 308 308 307 308 308 308 308 309 310 312 315 319 318 316 319 318 316 318 319 320 322 322 325 325 325 327 325 327 327 317 316 325 328 325 326 323 316 318 323 325 324 326 323 317 314 314 313 313 311 312 312 311 310 310 314 322 326 329 332 331 331 333 333 333 334 335 335 336 342 345
311 309 308 307 306 307 307 308 309 308 307 307 307 307 307 307 307 307 307 307 307 307 307 308 309 310 310 311 314 317 317 316 318 318 318 319 319 319 320 320 321 324 323 326 326 326 328 321 314 321 327 322 320 321 319 319 320 320 318 318 318 317 318 316 315 312 311 311 311 312 310 310 319 329 330 330 334 332 332 334 333 333 333 334 338 336 339 346
309 308 308 307 307 307 308 308 308 307 306 305 305 305 305 306 306 306 306 306 307 307 308 308 308 309 309 311 313 314 316 316 317 318 319 319 320 318 319 318 319 322 323 325 327 325 326 324 315 315 319 315 318 325 326 324 323 321 318 318 317 316 314 313 313 313 312 310 310 312 310 312 323 332 330 331 332 332 333 333 332 333 333 335 338 338 341 346
308 307 308 308 307 307 308 307 306 307 307 306 305 305 305 305 305 305 305 306 306 307 307 307 308 309 309 309 310 311 312 314 315 317 318 318 320 318 317 317 318 321 323 324 326 326 328 327 318 314 317 321 325 327 326 326 326 325 322 323 324 320 314 310 310 312 311 310 311 311 309 315 328 335 331 331 332 331 333 333 333 334 332 333 335 337 340 345
307 307 308 307 306 307 308 306 306 307 306 306 306 305 304 305 304 305 305 305 305 307 307 308 308 310 310 311 311 311 311 313 314 315 317 319 320 318 316 317 317 320 325 325 326 327 328 326 319 316 320 324 326 327 326 327 326 323 323 325 324 322 319 317 316 316 314 310 310 310 309 315 327 335 331 330 331 330 332 332 333 334 333 334 333 335 339 342
306 307 307 306 307 307 307 305 306 306 306 306 306 305 305 305 304 305 305 304 305 306 307 307 308 309 310 310 312 312 311 313 314 314 316 318 319 317 317 316 317 319 321 323 325 325 323 324 321 316 317 318 320 322 322 323 324 321 323 325 324 324 324 323 321 319 315 312 312 311 308 314 327 335 332 331 330 329 330 331 332 333 333 331 333 343 350 351
305 307 307 306 307 307 306 306 306 306 306 306 306 305 306 306 306 306 306 305 305 305 305 306 307 308 309 309 311 312 311 312 313 315 316 318 317 317 317 316 316 317 318 321 324 323 323 326 324 317 315 315 315 316 315 318 321 322 323 326 325 325 323 320 316 314 313 314 315 312 310 317 331 335 331 331 331 329 329 331 330 332 334 336 343 354 361 361
305 306 306 305 306 307 306 306 306 306 307 307 307 307 306 306 306 307 306 306 306 306 305 306 307 308 308 309 310 311 311 312 312 313 315 316 317 317 317 316 316 317 320 323 324 323 324 328 327 323 319 317 320 323 325 324 320 316 320 323 323 325 325 322 315 311 314 315 314 315 318 319 327 333 333 331 330 330 330 330 331 332 333 340 349 354 352 354
305 305 305 305 306 306 306 306 306 306 306 307 307 307 306 306 306 306 306 306 306 306 306 307 308 308 308 309 310 310 311 312 313 313 314 315 316 316 315 316 316 318 320 322 321 322 324 324 327 327 323 323 331 333 331 327 321 317 318 320 323 326 325 321 315 314 320 315 311 320 327 320 323 332 334 332 332 332 331 331 332 334 334 339 348 347 341 341
306 305 305 305 305 305 305 306 305 305 306 306 306 306 306 306 306 306 306 306 306 306 307 308 308 308 308 308 309 310 311 313 314 315 315 315 314 315 315 316 316 317 318 318 317 322 324 322 326 327 325 327 333 331 329 328 326 325 323 321 323 324 323 318 317 321 325 316 313 325 330 324 327 333 332 331 334 332 332 332 332 335 338 339 343 342 337 337
306 306 305 305 305 305 305 305 305 306 306 306 306 306 307 306 306 305 305 306 306 306 307 308 308 307 308 308 309 310 310 311 313 314 314 314 314 315 315 317 316 316 317 317 318 321 322 323 326 327 324 325 329 330 330 328 326 326 325 325 325 325 323 322 322 325 326 322 324 330 330 328 332 332 332 333 333 332 331 332 332 335 335 335 336 336 333 336
306 306 306 306 305 305 305 305 306 306 306 306 306 306 306 305 305 306 305 306 307 307 307 307 307 307 307 308 309 309 308 309 311 311 311 312 313 314 315 315 315 316 316 317 318 320 320 322 325 325 322 323 326 328 328 327 325 323 324 326 327 325 325 324 324 325 325 324 328 329 328 330 332 332 333 333 334 333 332 331 332 334 334 334 332 333 334 336
307 306 306 306 306 306 305 305 306 306 306 306 306 306 306 305 306 306 306 306 306 307 307 307 306 307 307 307 308 308 308 308 309 309 310 310 311 312 313 313 313 313 316 317 317 319 320 321 322 322 320 320 323 325 324 325 326 320 320 325 325 322 323 323 325 327 324 323 325 323 321 328 335 334 334 334 334 333 332 333 332 332 333 332 332 331 333 335
307 307 306 306 306 306 305 305 305 306 306 306 306 306 306 305 305 306 306 307 306 307 307 306 306 306 306 307 308 308 308 308 308 308 308 309 309 310 310 311 311 312 314 315 316 317 319 320 320 320 319 319 321 323 322 322 321 318 319 325 326 325 325 325 326 329 329 326 324 320 321 330 335 334 333 334 333 333 334 334 333 334 334 334 334 333 332 333
Wind_Speed
25 25 26 25 25 24 24 25 26 28 30 29 29 29 29 31 31 28 25 24 24 22 21 21 20 19 18 17 16 16 18 18 18 15 19 24 19 17 18 10 11 21 19 16 18 19 20 20 20 20 15 12 9 8 9 9 7 5 4 6 3 1 3 6 4 2 5 6 7 8 6 6 8 7 5 5 7 9 7 7 9 6 5 12 21 27 29 30
25 25 26 26 26 24 25 27 29 31 31 31 30 30 31 31 30 28 26 25 24 22 21 21 20 19 18 15 15 15 17 18 19 20 27 31 22 18 22 17 13 19 23 19 21 22 19 18 19 18 13 9 9 9 9 8 7 6 6 8 3 5 9 12 4 5 6 5 7 7 4 4 6 6 4 5 8 9 8 10 10 9 11 16 24 28 30 31
25 25 26 26 26 25 27 30 31 33 33 33 32 33 33 32 30 27 26 25 24 23 21 21 20 20 17 13 13 12 14 18 19 22 27 29 26 27 27 22 18 19 23 22 22 23 19 19 20 17 13 10 9 10 10 8 7 8 8 7 2 6 14 11 1 5 5 4 5 8 4 4 6 5 4 5 8 8 7 9 10 11 14 18 21 25 30 30
25 26 27 26 27 27 30 33 34 35 35 35 35 34 33 32 30 27 26 26 25 24 23 22 20 19 15 11 9 9 13 16 13 10 8 11 17 26 29 26 22 22 24 22 21 22 20 19 19 17 13 10 10 11 10 8 7 8 8 6 5 6 7 5 3 3 4 4 4 6 4 6 7 6 4 5 7 6 7 9 10 13 15 19 21 23 27 27
26 27 27 27 29 31 33 34 35 36 36 36 36 35 34 33 30 28 27 27 26 25 24 22 20 18 13 8 5 7 11 9 1 7 9 8 6 15 26 26 24 25 25 22 21 21 20 19 18 16 12 10 11 11 11 12 9 7 8 9 9 6 3 2 3 4 3 0 1 3 3 5 6 6 6 5 3 2 6 11 12 14 17 19 21 22 24 24
27 28 28 29 31 33 35 36 37 37 38 37 37 37 37 33 30 29 28 27 26 26 24 21 19 16 11 5 4 7 10 5 6 10 8 9 12 7 14 22 26 27 25 23 21 20 19 18 16 14 12 11 13 12 11 13 11 8 8 10 10 8 5 2 3 4 1 3 1 0 2 3 4 5 5 5 3 3 5 11 14 16 18 20 21 21 23 23
28 29 30 31 33 36 37 37 38 39 39 38 38 39 37 32 30 30 29 28 27 26 24 19 17 14 7 3 5 8 11 12 7 5 3 1 6 6 6 19 27 28 25 23 21 19 18 18 18 14 13 12 14 14 12 13 14 11 10 9 9 9 8 5 3 3 4 4 3 2 1 3 4 3 4 5 6 6 8 11 14 16 19 20 20 21 23 23
29 30 31 33 36 38 38 38 40 41 40 39 39 39 36 31 30 30 29 29 26 23 21 16 15 9 4 5 8 9 11 18 16 10 9 9 4 3 9 19 26 26 25 24 20 18 18 18 19 14 13 13 13 13 13 13 14 14 12 10 9 9 9 8 6 6 7 6 5 6 6 5 4 4 4 6 8 8 9 11 15 17 18 20 21 22 22 21
30 31 33 35 37 39 39 40 41 42 41 41 40 37 34 30 30 30 28 25 22 20 18 13 12 5 8 7 8 9 11 14 13 12 10 8 7 9 15 19 24 25 23 24 22 19 17 16 19 16 14 13 13 13 13 13 10 11 15 14 11 10 10 9 8 9 9 6 7 9 8 7 6 6 6 7 9 11 11 12 16 18 18 19 20 21 20 21
30 32 34 37 39 40 40 41 42 42 42 41 39 35 31 30 31 29 24 20 17 18 16 13 9 7 11 10 9 9 7 5 6 10 11 10 12 17 19 18 23 26 22 22 22 21 17 15 17 15 13 12 13 13 12 13 9 8 12 14 13 12 10 10 10 11 10 9 10 9 9 8 7 7 6 8 11 12 13 14 17 18 18 18 19 19 19 20
31 33 35 38 41 41 41 42 43 43 43 41 36 32 30 31 31 25 18 15 15 17 15 11 8 11 14 12 10 8 1 3 5 7 10 13 17 20 21 20 23 25 22 20 22 23 20 18 16 12 11 11 12 13 12 13 11 9 9 10 13 13 12 13 13 12 11 10 11 10 11 9 8 8 7 8 13 13 14 16 18 17 17 18 18 18 17 17
32 35 37 40 42 42 43 43 44 44 42 38 33 30 29 31 29 20 13 12 14 16 12 9 9 13 13 10 14 14 5 2 3 5 8 12 18 23 22 20 22 25 23 19 20 23 23 21 18 14 11 9 10 11 10 13 14 13 11 9 12 13 14 16 15 14 12 10 10 10 11 10 11 11 8 8 14 14 14 16 17 17 16 17 17 17 16 16
34 36 39 41 42 43 44 44 44 43 39 35 32 30 29 29 25 15 10 11 13 14 11 6 10 12 12 9 14 21 17 12 6 6 8 11 16 20 20 20 22 23 23 20 19 22 23 22 20 17 14 10 11 7 3 9 14 12 12 10 11 12 13 16 16 16 15 12 12 11 8 8 11 12 10 9 13 14 14 15 16 16 15 16 16 16 16 17
36 37 39 42 43 43 44 44 45 42 36 34 32 29 27 27 21 11 8 10 10 10 8 3 11 11 10 10 13 15 16 16 13 10 9 11 15 18 18 19 20 21 22 21 18 19 21 22 20 16 14 12 11 8 4 8 11 11 12 10 10 9 10 15 17 17 16 12 13 12 7 6 8 12 12 10 13 13 13 15 15 15 15 15 16 16 17 17
37 37 39 41 42 43 44 44 43 38 34 33 30 27 25 23 17 9 7 7 7 6 2 7 11 9 7 13 16 14 14 13 15 16 12 13 14 14 16 17 19 20 20 19 18 17 19 21 18 13 13 14 13 11 9 9 9 10 11 10 11 10 10 14 17 17 16 12 14 12 8 7 7 13 13 12 14 13 14 14 14 14 15 15 15 16 16 16
37 37 39 41 42 43 43 44 41 36 33 31 29 26 23 19 13 8 6 4 4 2 5 7 11 10 8 7 4 8 14 15 17 18 15 16 14 12 16 17 17 19 18 17 15 13 16 17 14 12 12 14 14 11 8 8 10 10 10 11 12 12 11 11 14 17 16 13 14 13 10 6 6 11 12 13 14 15 15 13 14 14 14 15 14 14 15 16
37 38 39 41 42 43 43 43 38 33 30 29 28 24 17 14 10 7 5 5 5 3 7 8 6 9 9 6 2 6 14 16 17 20 19 19 15 11 14 14 14 17 16 14 12 11 14 13 10 10 12 12 12 11 9 11 11 10 11 11 13 15 13 11 11 15 17 16 14 14 12 8 7 12 11 11 12 14 14 14 15 12 11 12 13 13 14 16
38 38 39 41 42 42 42 41 35 29 29 28 28 23 15 13 10 7 6 7 7 8 10 9 6 7 8 10 9 6 11 17 18 19 21 21 18 13 13 13 13 15 14 11 12 12 12 11 9 10 11 12 13 13 13 14 13 13 12 11 12 14 14 14 12 14 18 18 15 14 13 12 11 13 13 10 10 11 14 16 15 14 13 13 11 12 13 16
38 38 39 41 42 42 41 39 31 27 26 27 31 25 12 11 10 8 8 8 8 7 6 5 10 7 5 6 12 3 2 11 16 18 21 23 20 15 14 14 14 15 14 11 13 15 11 9 11 12 13 15 17 16 16 16 16 16 15 13 13 13 13 15 14 13 16 16 16 15 14 14 14 12 12 11 11 12 13 14 15 15 15 13 11 11 13 15
37 38 39 40 42 41 40 35 26 24 24 26 31 22 5 4 5 4 4 8 10 12 14 9 13 14 11 6 8 5 3 6 13 16 21 25 21 17 15 13 14 14 14 12 13 15 12 11 14 15 16 18 21 21 20 19 19 17 15 14 15 15 13 13 14 13 14 12 14 15 16 15 14 14 14 15 15 15 13 13 14 16 14 13 15 14 14 13
38 38 38 40 41 40 38 31 21 21 21 22 24 13 7 10 8 6 10 14 15 17 22 21 18 20 19 14 6 4 5 8 13 15 19 24 21 17 14 14 15 13 14 16 13 13 13 14 16 19 20 20 21 21 20 20 21 20 15 14 14 14 14 14 15 14 12 9 11 12 15 16 16 15 14 15 16 15 14 13 13 16 16 14 16 16 14 11
37 38 38 40 40 39 36 26 16 17 18 17 15 11 10 11 8 10 12 14 18 17 20 22 22 21 21 22 15 7 7 10 15 16 19 23 21 17 15 17 16 13 16 17 12 12 14 15 19 21 20 20 19 20 22 22 21 19 14 12 12 12 13 14 17 18 13 8 9 14 14 14 16 15 12 14 16 14 14 13 12 14 15 14 16 16 15 14
37 38 38 39 39 39 33 21 14 14 15 13 12 13 12 12 10 13 11 10 17 19 17 20 22 21 20 21 20 15 12 12 14 16 21 23 19 18 17 18 18 16 18 19 15 14 13 15 20 21 19 20 20 20 22 20 17 16 14 12 12 13 13 12 15 18 15 9 9 15 14 12 14 14 15 18 14 13 14 14 15 15 15 16 16 14 14 17
38 38 38 39 39 38 32 19 12 13 12 9 10 14 14 14 13 14 11 9 13 16 16 19 19 18 19 17 18 20 16 13 13 15 22 22 18 18 18 18 19 17 17 22 22 18 15 13 17 21 20 21 21 20 20 17 13 16 18 15 14 15 16 13 13 16 16 14 13 14 13 10 13 15 15 15 12 12 14 15 16 16 16 15 15 15 15 16
39 38 38 40 38 37 31 16 9 16 14 8 10 16 16 15 14 14 11 6 9 11 11 14 13 13 16 15 15 16 15 15 16 14 19 22 20 17 15 14 14 17 20 25 24 18 17 14 15 21 22 21 21 19 19 16 12 15 20 20 17 17 18 17 15 15 14 13 13 13 11 9 13 16 15 14 14 16 16 15 15 16 16 15 16 16 17 18
38 38 38 39 37 37 26 9 10 19 14 7 14 18 17 15 13 13 8 5 8 8 9 9 9 9 12 14 13 13 13 15 17 17 18 23 22 16 14 12 10 16 21 20 16 11 14 17 15 18 22 22 20 17 19 19 13 11 16 21 21 21 20 19 18 16 11 9 11 14 12 9 11 16 17 17 17 18 18 16 16 15 17 18 18 17 18 19
37 37 38 37 35 32 19 8 13 17 9 10 18 19 17 14 13 11 6 6 7 5 10 6 5 7 9 11 14 14 8 8 16 21 20 23 23 18 16 15 12 15 16 12 12 10 15 21 18 17 20 20 17 15 18 19 13 10 13 17 21 22 22 20 18 15 10 8 11 15 14 11 10 13 16 18 20 20 19 18 16 15 17 19 19 19 20 21
37 37 35 35 33 22 11 12 14 12 9 15 20 18 17 15 12 8 5 5 2 7 7 4 4 4 7 9 16 16 6 3 14 20 22 24 23 18 18 20 17 17 18 14 12 13 16 21 20 19 18 15 15 16 17 18 15 12 12 14 16 19 22 21 17 12 11 10 11 14 15 11 10 10 11 15 19 19 17 18 16 16 16 18 19 21 21 20
38 37 33 33 30 13 5 11 12 10 13 18 19 19 18 15 10 5 5 6 2 5 1 2 5 5 7 9 15 18 11 7 7 13 23 24 23 18 15 19 20 18 22 20 15 13 14 18 20 19 15 14 16 17 17 18 15 13 14 15 13 12 15 17 15 12 12 12 12 15 16 12 9 10 10 13 16 15 14 16 15 17 16 15 17 19 19 18
38 36 30 28 23 13 8 11 9 12 17 18 19 21 19 11 6 5 7 6 1 3 2 3 4 5 9 10 13 16 16 11 3 9 21 21 22 21 13 15 18 15 18 21 19 17 14 15 18 17 14 14 15 15 16 18 16 14 15 13 9 8 9 10 11 11 11 13 15 18 19 15 11 10 11 13 14 13 12 13 15 17 16 14 13 16 19 18
36 32 25 19 15 13 12 10 12 18 19 19 21 21 15 6 5 8 6 2 3 3 2 3 2 0 6 7 8 13 17 14 7 11 17 16 19 19 13 13 14 12 14 16 17 20 19 15 14 14 15 15 14 14 16 18 17 14 13 10 8 7 8 8 9 10 12 13 14 19 21 19 14 10 10 13 16 17 16 15 18 19 18 16 14 15 17 17
34 26 17 11 11 12 11 12 19 21 19 20 20 14 8 6 7 9 7 5 3 4 6 5 7 8 8 10 9 11 14 14 13 13 15 16 16 17 17 15 12 13 14 13 15 17 18 17 14 15 17 18 15 13 13 14 15 14 12 11 10 8 8 9 10 11 12 12 11 16 19 17 15 12 13 14 16 18 17 15 17 21 21 19 17 16 16 16
31 20 12 10 10 11 12 16 20 20 19 20 15 7 6 8 8 8 10 8 4 8 10 9 12 14 12 10 11 11 12 13 15 16 16 18 16 17 21 21 18 16 12 12 14 14 14 16 19 17 14 17 17 12 11 12 13 15 13 11 11 9 9 11 11 10 11 11 12 16 16 15 15 12 16 19 16 15 15 16 18 20 22 20 18 18 18 17
26 15 11 10 9 10 13 18 19 19 20 16 10 7 9 9 8 11 11 6 9 12 12 13 15 16 13 12 11 9 10 12 16 17 15 16 16 15 19 23 25 19 11 12 12 13 14 14 18 19 13 16 21 16 13 12 12 14 13 12 11 10 9 9 9 10 10 9 13 16 13 12 12 8 12 19 19 16 14 15 18 18 19 20 17 17 17 16
22 13 10 7 7 11 16 18 17 17 16 11 8 8 10 9 7 8 7 9 11 12 15 17 16 15 12 11 12 8 5 8 15 17 14 15 14 14 15 19 25 21 14 12 10 12 17 13 16 21 16 18 22 20 16 14 12 12 12 12 12 11 10 7 8 10 10 9 10 12 11 10 9 8 8 12 17 20 16 12 15 15 16 19 17 16 16 14
20 13 9 5 9 15 17 17 16 15 13 8 8 8 8 9 6 4 8 11 12 13 17 17 12 11 9 9 10 9 4 5 10 13 13 15 15 17 16 15 21 24 17 12 8 10 14 12 15 23 22 20 22 21 20 15 10 10 13 14 13 13 11 7 8 9 9 9 8 9 11 9 7 9 10 9 12 18 19 16 15 15 16 18 18 16 14 13
20 14 9 5 11 18 17 15 15 14 10 7 8 8 9 10 7 6 9 12 13 13 14 11 8 9 9 8 7 9 1 5 7 8 10 14 13 14 17 16 20 25 24 17 10 9 10 10 14 23 24 21 20 21 23 20 13 9 12 14 12 12 12 8 7 8 8 8 7 9 12 11 9 8 10 14 14 15 19 21 19 17 17 17 17 18 17 16
21 16 8 4 14 19 16 14 14 12 8 6 10 11 9 9 9 9 11 13 13 12 11 9 9 10 10 11 4 4 5 6 6 6 9 12 7 0 5 9 10 11 19 21 14 10 9 9 12 21 23 19 18 19 19 20 20 14 10 12 11 10 11 9 7 8 9 8 7 10 12 10 10 8 8 15 18 17 18 20 20 20 19 17 17 19 21 20
20 13 4 8 17 18 14 14 12 9 6 6 9 8 6 9 10 11 12 12 11 10 10 10 10 11 12 14 9 2 5 8 7 7 7 10 4 7 10 3 0 5 5 11 11 9 9 9 9 17 22 19 15 15 14 16 20 17 12 12 12 10 9 10 8 7 8 7 7 10 10 9 9 10 11 13 15 17 17 16 17 19 19 17 16 16 19 19
14 8 4 14 19 17 16 15 9 5 5 6 6 7 9 10 10 11 12 11 10 8 9 11 11 11 12 14 13 8 7 9 11 9 7 6 2 6 12 10 6 8 9 7 9 10 10 10 9 13 20 18 13 14 16 16 17 16 13 12 12 10 9 9 9 8 8 7 6 7 8 7 6 9 12 11 11 14 15 15 14 16 17 16 15 14 15 16
11 6 6 16 20 18 16 11 4 4 6 5 6 7 10 10 10 12 12 11 9 8 10 12 13 12 12 12 12 10 9 9 10 9 9 6 1 5 9 11 11 10 9 7 9 12 10 8 10 10 14 15 15 16 20 20 19 16 14 13 13 12 10 10 10 10 9 8 6 6 5 2 3 2 7 9 10 11 13 15 14 14 15 15 15 15 15 15
8 6 8 15 19 19 14 6 3 4 4 5 7 7 8 9 10 11 11 11 10 9 9 11 13 12 12 11 11 12 11 10 10 10 10 6 3 8 10 11 13 11 8 7 12 12 5 4 10 11 12 14 17 19 20 21 22 19 16 14 13 12 12 10 9 9 9 10 8 7 6 2 7 5 3 6 8 9 11 12 12 13 14 13 14 16 16 15
5 8 8 11 17 17 11 4 4 4 4 6 9 9 8 8 8 9 9 9 9 8 8 9 11 10 10 11 12 13 12 11 12 12 14 12 1 8 10 13 15 12 6 4 9 7 2 4 10 10 10 13 16 18 19 20 20 17 16 16 14 13 13 11 9 7 7 10 9 7 7 4 8 7 5 5 7 8 9 10 11 11 11 12 13 14 14 15
6 7 5 10 16 14 7 5 6 5 6 8 10 9 7 6 7 8 9 9 7 6 8 9 9 9 10 12 12 13 12 10 12 13 14 11 2 8 7 12 14 11 7 5 4 3 3 8 10 8 9 12 13 15 16 18 17 13 14 18 18 19 18 14 10 8 7 10 11 9 8 4 6 7 6 6 7 7 8 10 10 9 9 11 12 9 7 9
8 5 3 9 13 9 4 5 6 6 7 9 10 10 8 5 5 6 9 10 7 7 7 8 10 10 10 11 11 13 14 12 11 13 11 8 2 3 6 9 12 10 9 11 13 8 6 8 10 10 11 12 11 12 12 14 14 12 15 22 23 24 23 15 10 9 8 9 10 9 5 5 9 7 6 6 8 8 8 9 10 9 9 8 7 8 9 7
7 5 5 8 7 5 4 4 5 7 7 9 8 8 9 8 5 5 7 7 6 8 9 7 9 10 8 10 10 10 14 14 14 14 11 8 8 5 8 11 11 8 11 16 15 8 6 8 11 14 15 9 3 2 6 11 15 16 19 23 24 25 24 17 11 11 9 7 9 9 6 6 11 9 7 8 9 8 7 8 8 9 9 6 7 8 7 5
6 6 7 7 5 5 5 5 6 7 8 8 7 7 9 10 8 6 5 6 7 9 8 5 7 9 8 9 10 9 11 14 16 15 11 9 10 10 12 13 9 7 10 13 10 5 6 8 12 17 20 15 2 6 8 8 15 20 22 23 23 24 25 21 15 13 11 9 8 9 9 6 7 10 9 9 9 8 8 8 8 9 8 7 7 6 4 5
6 5 6 7 7 7 7 8 9 9 10 9 7 8 10 9 9 8 6 6 9 9 6 3 5 9 10 10 10 9 9 11 12 9 11 12 11 11 12 13 7 4 8 9 6 5 6 8 11 15 20 21 11 5 9 9 12 16 19 23 25 25 26 25 21 17 13 10 8 9 12 12 5 9 10 9 8 8 8 8 8 9 8 7 7 5 6 8
6 5 6 7 8 9 10 11 11 12 10 8 7 7 8 9 10 10 8 7 8 7 6 7 7 9 11 11 9 8 8 8 9 9 12 12 10 9 10 9 3 4 8 8 6 6 4 5 7 10 16 20 16 10 9 11 12 11 13 18 23 25 26 24 22 21 17 14 11 8 12 14 11 8 9 10 7 5 4 4 5 8 9 7 6 5 7 10
6 6 6 6 8 9 9 10 10 9 8 7 6 4 6 9 10 9 8 9 10 8 6 8 9 10 12 12 11 10 8 8 10 11 11 11 10 8 7 6 7 10 11 7 6 7 4 3 7 9 10 14 15 12 11 12 12 12 12 14 18 23 24 22 21 20 18 16 15 12 9 10 10 10 8 9 8 5 4 3 2 4 5 5 5 6 7 9
11 10 7 7 8 8 8 8 8 8 7 5 5 5 7 9 10 9 9 10 9 8 6 8 11 11 12 13 13 11 10 10 11 12 11 9 10 10 9 8 10 11 10 8 6 7 6 6 6 7 7 9 12 14 14 12 12 14 15 14 15 17 18 18 18 18 17 16 16 15 11 7 7 9 9 8 7 6 6 7 7 7 6 5 5 5 5 6
14 12 8 6 8 8 8 8 8 7 6 4 5 8 9 11 11 10 9 7 5 6 7 9 11 10 10 13 12 10 10 10 11 11 11 10 11 12 12 13 14 12 9 8 8 6 6 6 5 6 7 8 12 15 16 14 12 13 14 15 16 14 14 14 15 16 17 16 13 12 10 8 7 9 10 10 10 10 10 9 9 8 7 7 7 7 7 7
Wind_Direction
358 356 354 352 349 348 346 346 348 350 349 347 345 343 340 339 336 329 326 326 325 322 320 317 314 312 310 313 314 313 316 309 295 268 244 253 249 231 234 232 215 201 187 191 187 180 185 194 198 196 203 208 217 232 215 212 237 239 241 248 236 39 273 266 270 117 102 92 105 127 143 130 122 117 106 146 136 124 140 123 115 114 105 119 132 144 146 152
357 355 352 350 348 346 346 349 350 350 348 347 344 341 339 336 331 326 324 324 323 321 318 315 312 309 309 315 315 316 319 299 279 266 254 257 252 238 233 226 223 196 187 197 189 184 187 189 193 192 202 211 209 223 215 200 219 233 243 251 202 148 227 242 257 43 64 80 91 107 139 114 111 123 137 175 135 133 150 131 133 122 106 115 133 145 148 154
356 353 351 349 346 346 348 350 349 348 348 345 343 341 338 335 329 325 324 323 321 320 316 312 310 307 309 315 316 320 315 295 276 263 259 258 247 238 234 221 216 196 190 199 191 189 193 189 190 192 203 214 208 213 211 192 200 229 242 262 274 198 220 222 161 57 62 49 85 105 118 121 132 148 158 170 140 147 159 142 147 137 128 131 140 150 152 158
355 352 349 347 346 348 349 349 348 348 346 344 343 340 337 333 329 327 324 322 320 318 314 310 307 303 308 315 316 321 304 285 274 269 254 243 232 228 227 217 209 198 195 200 194 194 197 191 191 196 207 215 209 211 213 196 196 230 238 250 258 243 237 203 131 89 73 30 62 100 119 138 138 148 158 165 153 162 169 157 154 144 141 144 150 156 157 161
353 350 348 347 348 349 349 349 348 348 346 344 341 338 335 331 330 328 323 320 317 315 311 307 302 298 304 307 301 310 292 275 342 75 94 108 147 205 215 211 202 195 196 199 196 197 199 194 194 199 211 221 209 209 216 206 210 235 242 254 254 248 268 189 140 90 84 9 90 116 137 127 129 153 173 179 154 136 160 155 153 146 147 153 158 159 159 165
351 349 347 348 349 349 350 349 348 347 345 342 339 338 336 332 330 327 322 319 315 310 307 302 295 292 296 289 278 281 261 262 59 96 103 84 93 135 201 202 195 190 194 198 195 197 200 197 194 201 212 223 218 213 216 208 214 238 238 246 262 264 259 215 139 112 180 248 240 99 94 120 164 173 174 183 146 93 124 142 147 146 150 159 161 161 164 169
349 347 346 347 349 349 349 348 347 346 344 341 338 337 336 332 329 326 322 318 313 307 304 296 288 286 279 254 254 257 241 260 284 172 220 324 97 71 161 186 189 190 197 198 195 197 199 198 196 205 211 219 224 217 218 214 214 234 248 243 247 258 251 238 208 170 215 251 273 287 287 207 202 176 163 180 171 132 115 131 140 142 150 161 164 168 170 169
348 346 346 349 349 349 348 347 347 345 342 340 337 336 334 331 329 326 322 316 311 305 302 292 283 274 214 231 249 245 234 253 259 214 233 251 212 69 141 175 189 196 204 200 198 198 198 202 200 206 215 219 228 218 217 223 219 224 245 257 248 249 244 237 235 222 228 242 256 249 246 236 207 214 197 177 181 154 132 138 140 145 155 163 168 172 172 168
347 346 348 349 349 349 348 346 345 343 342 339 336 335 332 331 329 326 322 315 310 305 301 288 277 234 181 222 249 254 247 251 244 200 212 232 192 165 160 175 192 200 209 205 203 202 200 205 202 210 223 223 231 228 219 222 226 221 233 246 245 245 241 235 232 231 236 236 242 239 239 240 207 218 223 185 181 159 148 151 143 149 160 164 170 173 172 170
347 346 348 349 349 349 348 346 345 342 340 338 335 334 331 331 328 326 322 315 312 307 299 281 261 187 187 222 238 250 253 243 223 193 206 212 183 174 179 185 190 200 211 208 206 206 205 208 205 214 232 234 236 235 225 223 226 222 230 241 245 249 245 239 236 232 235 233 238 243 242 241 208 207 219 187 178 163 158 158 150 154 162 167 171 172 174 174
347 347 349 350 349 348 347 346 344 342 340 337 335 333 330 329 328 327 321 316 317 313 305 277 232 183 201 227 233 237 194 185 220 203 206 213 200 189 193 194 190 199 209 209 210 210 209 212 210 214 230 237 243 239 231 228 235 241 240 244 245 248 246 241 240 237 239 237 232 240 244 241 216 211 218 181 168 166 165 160 158 162 162 167 172 172 174 177
348 350 351 350 350 349 347 345 344 342 339 336 335 332 328 327 327 326 319 319 323 321 313 270 206 188 215 235 236 236 230 209 246 238 214 211 206 198 200 201 197 203 208 210 212 210 212 214 214 218 222 225 238 240 235 229 233 246 250 253 245 241 239 233 232 231 231 233 222 229 242 234 221 213 205 173 158 164 170 165 164 166 163 166 171 172 174 178
349 351 352 351 350 348 346 345 344 342 338 336 334 330 325 325 324 322 314 319 329 327 314 261 189 196 228 246 240 237 242 247 259 266 227 206 201 199 203 206 203 206 210 214 212 210 213 216 217 224 225 224 229 230 281 241 228 236 241 247 250 242 234 226 225 225 224 225 214 222 241 225 212 196 181 163 155 167 175 170 172 169 165 168 170 173 174 179
350 351 352 351 349 347 346 345 343 341 338 335 332 327 325 323 319 314 308 319 338 333 317 194 178 203 230 251 256 241 240 246 240 235 219 197 192 192 197 201 203 207 212 219 218 212 214 216 219 227 228 233 241 229 234 240 223 227 235 235 242 244 233 219 215 219 220 215 206 216 245 242 194 163 168 164 154 176 185 176 179 175 169 170 171 172 176 179
350 351 351 351 349 347 345 344 343 340 338 336 333 330 325 318 312 302 298 319 346 350 38 147 189 219 247 258 260 243 233 234 222 215 205 188 183 185 192 196 202 205 209 220 223 217 214 215 217 224 223 224 245 242 224 230 222 219 229 228 226 235 241 221 207 211 218 210 204 214 238 243 179 151 166 162 155 184 193 182 183 180 175 174 172 174 176 179
349 351 351 351 349 346 345 344 343 340 339 339 335 331 323 313 305 289 286 306 326 34 125 170 201 223 267 279 235 208 216 215 209 207 200 191 187 183 186 191 195 199 204 212 221 220 212 214 217 223 223 214 227 237 225 226 221 214 223 230 223 220 233 228 201 199 215 215 202 211 237 239 157 149 161 153 164 189 187 182 188 185 180 178 176 177 178 177
349 350 350 350 349 346 345 344 343 341 341 341 336 333 324 312 300 279 276 277 276 221 200 237 223 213 257 276 174 199 208 205 205 204 199 197 201 187 174 183 188 190 195 198 209 216 205 208 213 217 223 217 213 218 223 221 214 210 214 228 232 224 223 225 201 189 205 218 207 205 226 237 159 150 159 163 180 191 183 183 188 185 184 185 182 180 184 181
349 350 350 350 349 346 345 344 344 344 343 343 342 336 316 293 284 270 261 244 236 222 226 253 246 223 247 237 229 241 208 198 197 199 198 197 203 197 176 181 185 180 183 185 200 206 195 199 210 212 215 216 211 206 216 219 211 211 209 216 231 231 224 219 212 193 195 211 216 213 219 224 203 168 165 186 197 201 194 182 182 188 186 183 186 189 191 189
348 349 349 349 348 345 344 345 346 348 344 345 348 341 307 268 257 239 244 237 217 225 242 206 197 228 321 232 215 230 171 183 186 192 196 195 198 201 190 187 184 181 186 186 190 196 191 193 206 214 210 208 211 209 215 223 221 218 214 217 222 228 229 220 220 202 191 208 216 221 230 225 220 195 172 185 204 215 210 189 183 183 177 173 186 200 197 197
348 349 348 348 348 345 344 345 349 354 348 342 344 343 328 314 286 227 277 274 245 252 277 265 220 246 296 284 209 184 135 167 188 196 195 191 191 196 198 193 186 186 197 193 184 189 193 201 207 212 212 208 210 214 219 226 232 231 223 222 222 226 229 220 224 205 184 213 219 216 234 231 225 215 187 182 199 211 212 203 185 167 169 180 186 199 196 198
348 348 348 348 346 344 344 345 349 358 354 339 340 355 28 5 338 330 334 300 271 258 265 266 250 250 261 265 250 186 208 205 201 203 193 187 187 192 194 194 192 192 201 198 189 188 197 212 215 211 214 214 211 215 221 224 230 235 231 228 225 225 227 216 219 212 182 203 227 221 235 235 230 227 205 188 195 210 211 204 190 170 174 183 185 197 193 193
348 348 348 346 346 343 343 345 347 354 351 341 353 21 19 3 340 319 318 298 286 271 258 257 252 249 249 250 249 242 250 221 201 201 190 183 187 192 188 193 200 195 196 199 193 192 205 220 219 211 212 217 215 213 219 225 226 231 233 234 232 223 227 220 215 221 206 194 229 234 237 239 236 238 234 214 198 203 210 198 188 181 178 180 189 197 187 191
347 348 346 345 345 341 341 343 341 345 341 337 4 19 2 349 336 314 299 286 288 277 254 242 238 236 235 237 234 227 237 225 204 197 185 183 191 195 191 193 203 200 194 201 201 197 208 218 217 213 210 213 220 214 214 222 224 228 228 227 233 223 222 225 213 219 218 201 226 241 242 241 238 234 234 235 213 191 204 198 184 187 189 184 190 198 190 193
347 347 345 344 343 340 341 334 328 345 333 315 352 8 356 338 334 327 305 273 278 280 257 234 225 227 227 222 216 216 224 228 220 198 181 186 193 195 201 198 201 207 199 202 208 211 216 212 207 213 211 210 218 217 212 218 220 225 228 224 229 227 226 231 222 222 221 208 216 238 249 241 238 238 229 234 227 194 202 206 187 186 192 181 178 196 201 197
346 345 344 343 340 339 337 321 330 348 325 310 354 356 346 336 339 332 310 271 261 263 244 224 211 219 219 207 201 205 215 223 226 208 182 190 196 190 203 204 201 212 206 204 211 219 223 214 199 207 211 209 215 217 210 214 218 220 225 227 232 234 233 236 235 234 229 215 213 225 244 244 232 239 237 231 226 204 198 207 199 182 181 180 178 190 201 201
345 344 344 342 338 339 337 324 344 335 316 346 0 344 337 337 338 325 300 274 267 227 178 181 183 184 193 194 186 188 214 222 220 217 191 191 203 198 201 204 205 215 209 205 213 223 224 218 205 204 208 208 212 218 212 212 223 222 218 221 229 238 240 239 237 238 237 229 222 217 228 246 233 230 231 229 230 215 192 196 209 191 178 185 186 184 196 201
346 343 342 339 337 340 337 322 330 325 321 353 343 333 333 334 331 320 284 258 264 166 139 156 167 165 174 179 175 178 217 208 195 214 204 189 199 206 209 205 202 215 212 205 214 218 217 216 208 200 207 209 210 218 212 208 220 228 216 213 220 230 238 240 240 240 240 239 240 232 228 239 240 231 225 222 229 223 192 184 207 206 187 189 191 186 193 198
345 343 340 336 335 334 311 293 312 324 337 336 328 327 328 324 314 296 272 271 241 126 125 125 115 170 179 168 184 197 231 171 182 203 200 192 196 203 214 213 207 210 210 212 216 211 211 215 210 199 204 213 211 214 209 204 217 230 225 221 218 222 229 234 239 242 240 239 242 238 235 238 239 237 235 230 231 222 190 180 203 216 201 192 194 192 192 197
344 342 338 332 332 336 284 279 295 319 331 326 323 322 318 309 298 268 253 269 201 119 102 138 138 186 178 166 197 214 225 215 203 190 186 193 201 205 218 219 216 213 213 221 225 215 208 211 216 208 203 215 215 209 204 205 216 225 227 229 224 222 225 227 232 237 238 240 239 232 231 239 242 232 230 236 237 221 189 180 198 216 210 197 199 194 189 195
343 341 338 332 332 341 312 281 294 329 331 323 319 317 309 291 271 243 232 251 267 71 74 150 152 177 181 184 200 215 222 225 215 167 182 191 197 208 223 220 224 224 216 222 228 229 220 204 215 220 209 214 217 205 203 213 216 215 222 225 218 223 228 227 228 232 237 238 236 233 233 240 247 234 221 226 231 221 203 189 192 207 206 194 206 204 190 193
342 340 337 331 329 330 312 300 327 334 326 319 317 309 294 262 248 249 237 289 357 23 69 112 63 274 222 233 216 204 212 221 205 172 186 191 189 202 212 209 221 227 218 219 221 228 227 208 206 218 210 207 216 210 204 211 212 209 215 210 200 210 216 223 220 219 234 237 228 228 232 239 244 234 225 227 224 220 215 199 190 198 201 190 199 213 199 191
342 341 336 331 327 316 304 314 325 323 318 317 314 303 278 251 239 237 252 286 307 14 11 359 350 332 296 286 265 219 205 211 208 192 191 193 190 197 204 202 198 205 214 214 208 214 223 219 207 204 204 201 210 213 199 201 205 204 208 203 198 201 199 209 211 210 228 235 227 225 224 232 243 236 231 236 230 224 219 205 195 196 196 189 189 209 213 194
342 342 337 332 319 302 302 314 317 315 318 315 305 285 263 262 250 248 266 279 345 10 343 327 329 316 295 277 259 231 212 206 203 201 196 197 199 200 205 208 203 204 214 208 204 206 211 219 213 201 196 199 207 211 195 193 197 198 203 200 197 200 196 203 209 214 228 228 224 225 221 228 241 234 226 232 236 233 219 204 207 205 192 183 184 202 213 198
341 341 327 313 298 300 312 316 316 316 314 309 295 271 255 253 259 267 274 315 5 350 327 325 322 307 288 266 250 231 222 213 202 202 200 197 205 205 203 209 210 211 218 211 206 207 206 212 210 202 192 192 202 214 208 193 192 199 203 204 206 211 207 205 208 215 224 225 214 213 221 231 235 229 221 224 225 231 230 205 203 210 190 173 179 202 210 199
343 337 315 302 307 326 326 319 318 315 310 301 283 267 255 252 261 274 301 353 353 338 329 321 306 293 280 258 251 245 246 229 206 202 203 203 209 208 202 205 209 210 216 215 206 206 214 216 206 204 200 192 197 208 212 201 193 196 200 207 211 215 221 222 223 222 224 230 213 203 217 233 236 240 232 227 218 214 225 213 194 206 194 168 172 198 210 202
338 330 315 314 338 340 331 323 320 312 305 293 273 262 254 260 280 336 360 355 343 336 330 315 294 281 269 246 227 203 197 265 228 209 205 208 213 214 210 203 205 210 214 215 210 208 216 220 206 199 198 198 197 199 206 209 197 185 198 212 210 213 229 237 231 231 230 235 223 204 215 221 228 233 213 215 224 210 209 211 199 201 196 174 172 187 203 207
329 323 307 301 340 344 335 326 322 308 295 281 273 273 273 279 301 340 352 351 345 335 323 309 302 302 291 273 218 172 109 312 243 223 212 205 207 215 218 208 200 210 218 222 228 220 219 224 208 195 193 196 195 196 205 212 209 195 197 205 206 214 231 241 237 229 223 230 230 218 218 210 209 225 202 198 216 215 205 206 203 196 190 184 182 182 190 204
312 304 291 320 345 344 338 328 320 304 290 283 272 268 285 307 324 336 338 340 339 332 315 293 295 304 301 293 264 120 3 311 226 230 222 203 193 336 252 215 188 205 223 226 231 229 228 233 206 191 190 188 186 196 206 209 214 222 208 194 200 212 214 217 229 228 219 221 225 226 226 218 208 211 208 202 206 214 208 201 201 200 196 197 198 189 186 194
303 297 312 20 352 342 336 321 308 296 286 295 283 275 312 329 336 343 333 324 327 324 304 290 291 292 289 289 288 314 325 303 287 273 234 208 189 43 22 340 133 11 295 244 240 234 228 237 212 183 180 180 181 196 204 198 206 222 222 201 203 218 212 206 216 226 228 225 220 222 223 226 223 213 216 209 197 204 208 197 199 204 200 199 203 196 186 189
309 298 27 22 353 340 329 305 288 298 299 305 311 315 329 330 331 331 317 311 320 314 296 296 297 293 292 291 288 281 279 287 295 288 269 264 223 66 33 5 331 338 329 282 245 228 219 228 225 176 169 181 190 199 205 195 192 206 215 205 200 208 213 211 213 216 229 234 225 225 222 218 219 209 210 208 188 192 202 197 199 206 200 192 194 196 186 187
307 291 13 11 348 333 322 300 292 336 311 326 338 321 325 328 319 312 309 316 318 299 292 291 287 289 292 291 290 286 276 275 288 286 270 271 41 54 23 4 341 321 306 274 224 218 221 224 227 188 171 197 204 197 205 205 195 196 205 208 202 200 205 211 212 208 218 236 233 238 244 203 101 144 194 200 189 182 194 200 198 204 207 197 190 193 190 188
310 316 350 358 344 331 319 306 4 341 315 343 331 310 322 321 310 314 324 329 319 303 296 286 281 284 281 279 279 276 274 273 276 280 274 265 67 42 10 359 340 319 299 254 213 213 239 254 236 211 186 207 209 196 203 210 204 199 203 211 207 202 206 210 211 202 206 226 231 240 249 157 89 87 150 188 192 178 183 200 200 196 205 208 197 191 192 189
328 326 333 353 346 331 318 330 356 333 338 346 323 315 326 317 313 325 323 315 312 314 309 291 287 291 292 302 297 280 278 279 270 272 281 278 69 57 8 355 345 331 319 256 214 206 264 255 240 229 199 203 206 197 199 208 208 203 202 210 211 209 209 212 218 211 203 214 212 217 237 193 110 114 139 162 185 183 177 191 203 197 192 202 203 196 193 190
323 311 330 357 345 328 324 353 346 335 344 337 325 326 329 318 322 326 314 311 317 316 306 297 301 305 305 312 311 295 289 283 271 267 272 277 58 68 12 350 343 339 358 352 318 324 281 222 222 233 210 196 195 193 192 202 210 208 201 205 211 214 212 211 219 224 217 213 205 205 224 198 116 120 133 146 174 195 192 186 196 203 191 192 196 180 162 165
322 315 345 351 340 331 341 353 335 332 337 332 328 330 328 325 331 324 317 320 322 312 304 303 310 313 304 299 299 292 281 269 273 281 281 289 321 60 31 353 327 332 0 342 321 313 283 232 216 219 211 195 191 195 191 191 203 211 203 202 207 213 213 208 210 220 219 210 208 216 212 130 118 132 146 167 192 206 203 182 176 188 189 177 157 122 102 110
328 329 345 346 338 332 334 334 328 327 331 330 327 327 326 323 328 329 323 323 328 322 317 316 315 314 307 301 299 293 279 268 266 272 278 288 284 310 4 335 310 334 345 320 307 296 280 258 235 228 225 212 163 207 224 202 200 207 206 203 203 209 212 209 209 216 215 209 213 225 220 143 135 151 168 179 189 193 188 172 160 170 174 141 95 92 107 129
331 329 340 340 328 325 326 328 332 328 324 321 317 320 321 316 317 327 331 332 335 329 322 326 324 319 322 316 303 295 292 282 271 270 290 318 316 325 328 302 293 358 340 307 302 299 281 264 242 235 238 238 253 359 319 255 212 207 207 206 204 205 208 210 214 212 203 211 214 206 221 218 146 149 176 177 168 166 170 168 151 146 155 139 106 106 146 169
336 325 337 333 315 316 321 322 322 315 309 311 310 307 307 309 315 321 332 332 323 322 319 304 307 314 322 324 308 297 303 297 288 307 345 354 347 338 312 273 244 32 342 308 315 322 284 259 246 240 242 244 248 294 307 276 230 215 214 211 206 205 207 209 215 214 204 217 224 186 202 227 196 144 160 163 152 149 156 163 145 130 134 131 127 152 178 171
326 311 328 327 310 308 309 309 308 304 306 309 301 295 300 311 317 317 325 325 310 313 321 307 308 316 316 315 305 294 300 299 299 327 349 345 332 319 301 273 228 29 342 318 331 332 285 255 277 268 246 243 245 245 257 260 245 235 237 226 212 207 208 209 213 216 211 217 227 197 192 215 219 187 161 152 158 173 169 163 138 138 148 141 140 175 183 164
321 317 326 318 306 304 304 302 299 299 300 291 279 298 315 307 309 316 320 313 305 313 325 312 310 314 308 304 296 285 290 296 296 307 323 326 315 297 300 330 359 352 331 315 331 331 300 288 319 307 262 245 246 240 240 250 244 235 241 240 222 210 208 209 210 213 214 214 217 212 199 203 213 221 207 173 168 190 220 234 227 192 184 161 159 187 184 166
312 311 308 306 307 308 305 304 298 292 295 288 291 320 320 301 306 317 309 300 298 303 313 312 309 308 300 294 290 289 296 294 285 287 293 296 296 294 300 317 326 327 320 307 318 323 307 305 307 285 255 247 244 233 229 237 242 237 233 234 230 217 210 211 209 209 213 213 214 217 216 206 192 206 229 229 216 225 239 244 254 258 254 248 235 227 211 194
315 309 299 296 299 300 302 301 293 288 300 317 313 308 302 299 305 308 301 297 287 280 291 299 301 301 294 287 291 303 311 300 287 287 287 276 273 277 279 281 285 292 296 294 302 306 301 308 295 255 243 241 234 228 226 230 236 235 228 224 226 225 222 219 212 210 213 213 216 221 222 222 207 198 216 231 231 234 239 242 247 251 254 260 263 262 257 244